{"data":{"norad_id":56353,"epoch":"2026-09-20T22:00:03.000096Z","epoch_age_seconds":72653,"freshness":"FRESH","line1":"1 56353U 23058AN  26263.91670139  .00687556  00000+0  28447-1 0  9997","line2":"2 56353  97.2851 257.8284 0001653  83.6028 122.3539 15.21652382  5784","mean_motion":15.21652382,"eccentricity":0.0001653,"inclination_deg":97.2851,"raan_deg":257.8284,"arg_perigee_deg":83.6028,"mean_anomaly_deg":122.3539,"bstar":0.028447,"rev_number":578,"period_min":94.633966143261,"perigee_km":499.71901357512,"apogee_km":501.99320869766,"semimajor_km":6878.9931111364,"source":"CELESTRAK","updated_at":"2026-09-21T09:00:33.428142Z"}}